Tiempo cada hora A Coruña

Hoy, 17 Enero, Domingo

Tiempo Temperatura Precipitaciones Viento Presión Humedad
00:00 +8°C° 0 mm 2 mps 770 mmHg 96%
01:00 +8°C° 0 mm 2 mps 770 mmHg 96%
02:00 +8°C° 0 mm 2 mps 770 mmHg 96%
03:00 +8°C° 0 mm 2 mps 770 mmHg 96%
04:00 +8°C° 0 mm 2 mps 770 mmHg 96%
05:00 +9°C° 0 mm 2 mps 770 mmHg 98%
06:00 +10°C° 0 mm 2 mps 770 mmHg 97%
07:00 +10°C° 0 mm 2 mps 770 mmHg 96%
08:00 +12°C° 0 mm 2 mps 770 mmHg 95%
09:00 +13°C° 0 mm 2 mps 770 mmHg 89%
10:00 +14°C° 0 mm 2 mps 771 mmHg 84%
11:00 +16°C° 0 mm 2 mps 771 mmHg 80%
12:00 +15°C° 0.1 mm 2 mps 770 mmHg 83%
13:00 +15°C° 0.1 mm 1 mps 770 mmHg 85%
14:00 +15°C° 0.1 mm 1 mps 770 mmHg 88%
15:00 +14°C° 0 mm 1 mps 770 mmHg 91%
16:00 +13°C° 0 mm 1 mps 770 mmHg 94%
17:00 +12°C° 0 mm 1 mps 770 mmHg 97%
18:00 +12°C° 0 mm 1 mps 770 mmHg 97%
19:00 +11°C° 0 mm 1 mps 770 mmHg 97%
20:00 +11°C° 0 mm 1 mps 770 mmHg 97%
21:00 +11°C° 0 mm 1 mps 770 mmHg 97%
22:00 +11°C° 0 mm 1 mps 770 mmHg 97%
23:00 +11°C° 0 mm 1 mps 770 mmHg 97%

Mañana, 18 Enero, Lunes

Tiempo Temperatura Precipitaciones Viento Presión Humedad
00:00 +10°C° 0 mm 1 mps 769 mmHg 97%
01:00 +10°C° 0 mm 1 mps 769 mmHg 97%
02:00 +10°C° 0 mm 1 mps 769 mmHg 97%
03:00 +9°C° 0 mm 1 mps 769 mmHg 97%
04:00 +9°C° 0 mm 1 mps 768 mmHg 97%
05:00 +9°C° 0 mm 1 mps 768 mmHg 97%
06:00 +9°C° 0 mm 1 mps 768 mmHg 96%
07:00 +8°C° 0 mm 2 mps 768 mmHg 95%
08:00 +8°C° 0 mm 2 mps 768 mmHg 94%
09:00 +11°C° 0 mm 1 mps 768 mmHg 86%
10:00 +14°C° 0 mm 1 mps 768 mmHg 78%
11:00 +16°C° 0 mm 1 mps 768 mmHg 69%
12:00 +16°C° 0 mm 1 mps 767 mmHg 66%
13:00 +18°C° 0 mm 1 mps 766 mmHg 63%
14:00 +18°C° 0 mm 1 mps 766 mmHg 60%
15:00 +15°C° 0 mm 1 mps 766 mmHg 71%
16:00 +13°C° 0 mm 1 mps 766 mmHg 81%
17:00 +11°C° 0 mm 1 mps 766 mmHg 92%
18:00 +10°C° 0 mm 1 mps 766 mmHg 93%
19:00 +10°C° 0 mm 1 mps 766 mmHg 94%
20:00 +8°C° 0 mm 2 mps 766 mmHg 95%
21:00 +8°C° 0 mm 2 mps 765 mmHg 95%
22:00 +8°C° 0 mm 2 mps 765 mmHg 95%
23:00 +7°C° 0 mm 2 mps 765 mmHg 95%

Pasado mañana, 19 Enero, Martes

Tiempo Temperatura Precipitaciones Viento Presión Humedad
00:00 +7°C° 0 mm 3 mps 764 mmHg 94%
01:00 +7°C° 0 mm 3 mps 764 mmHg 92%
02:00 +6°C° 0 mm 4 mps 763 mmHg 91%
03:00 +6°C° 0 mm 4 mps 763 mmHg 90%
04:00 +6°C° 0 mm 4 mps 762 mmHg 89%
05:00 +6°C° 0 mm 5 mps 762 mmHg 88%
06:00 +6°C° 0 mm 5 mps 762 mmHg 84%
07:00 +7°C° 0 mm 5 mps 761 mmHg 80%
08:00 +7°C° 0 mm 6 mps 761 mmHg 76%
09:00 +9°C° 0 mm 6 mps 761 mmHg 71%
10:00 +10°C° 0 mm 7 mps 760 mmHg 67%
11:00 +11°C° 0 mm 7 mps 760 mmHg 62%
12:00 +11°C° 0 mm 7 mps 759 mmHg 63%
13:00 +11°C° 0 mm 8 mps 758 mmHg 64%
14:00 +11°C° 0 mm 8 mps 757 mmHg 66%
15:00 +10°C° 0 mm 8 mps 757 mmHg 68%
16:00 +10°C° 0 mm 7 mps 756 mmHg 71%
17:00 +9°C° 0 mm 7 mps 756 mmHg 74%
18:00 +9°C° 0 mm 8 mps 755 mmHg 74%
19:00 +9°C° 0 mm 8 mps 754 mmHg 74%
20:00 +8°C° 0 mm 9 mps 753 mmHg 74%
21:00 +8°C° 0.1 mm 9 mps 752 mmHg 76%
22:00 +8°C° 0.1 mm 9 mps 751 mmHg 78%
23:00 +10°C° 0.1 mm 9 mps 750 mmHg 80%

20 Enero, Miércoles

Tiempo Temperatura Precipitaciones Viento Presión Humedad
00:00 +10°C° 0.3 mm 9 mps 750 mmHg 83%
01:00 +10°C° 0.3 mm 9 mps 749 mmHg 86%
02:00 +10°C° 0.3 mm 9 mps 748 mmHg 89%
03:00 +10°C° 0.2 mm 8 mps 747 mmHg 90%
04:00 +10°C° 0.2 mm 8 mps 746 mmHg 91%
05:00 +10°C° 0.2 mm 8 mps 745 mmHg 91%
06:00 +10°C° 0.2 mm 8 mps 745 mmHg 91%
07:00 +10°C° 0.2 mm 8 mps 745 mmHg 91%
08:00 +11°C° 0.2 mm 7 mps 744 mmHg 91%
09:00 +11°C° 0.7 mm 8 mps 744 mmHg 91%
10:00 +11°C° 0.7 mm 8 mps 744 mmHg 91%
11:00 +11°C° 0.7 mm 8 mps 744 mmHg 91%
12:00 +11°C° 0.5 mm 8 mps 744 mmHg 91%
13:00 +11°C° 0.5 mm 8 mps 744 mmHg 92%
14:00 +11°C° 0.5 mm 8 mps 744 mmHg 92%
15:00 +11°C° 0.8 mm 8 mps 744 mmHg 93%
16:00 +11°C° 0.8 mm 7 mps 744 mmHg 94%
17:00 +11°C° 0.8 mm 7 mps 745 mmHg 95%
18:00 +11°C° 0.7 mm 7 mps 745 mmHg 96%
19:00 +11°C° 0.7 mm 7 mps 746 mmHg 96%
20:00 +11°C° 0.7 mm 7 mps 747 mmHg 96%
21:00 +10°C° 0.3 mm 6 mps 748 mmHg 96%
22:00 +10°C° 0.3 mm 6 mps 749 mmHg 96%
23:00 +9°C° 0.3 mm 5 mps 750 mmHg 96%

21 Enero, Jueves

Tiempo Temperatura Precipitaciones Viento Presión Humedad
00:00 +9°C° 0.1 mm 5 mps 750 mmHg 95%
01:00 +9°C° 0.1 mm 5 mps 751 mmHg 95%
02:00 +9°C° 0.1 mm 6 mps 751 mmHg 94%
03:00 +9°C° 0.1 mm 6 mps 751 mmHg 94%
04:00 +9°C° 0.1 mm 7 mps 750 mmHg 94%
05:00 +10°C° 0.1 mm 7 mps 750 mmHg 94%
06:00 +10°C° 1.5 mm 8 mps 749 mmHg 94%
07:00 +10°C° 1.5 mm 9 mps 748 mmHg 94%
08:00 +11°C° 1.5 mm 10 mps 747 mmHg 94%
09:00 +11°C° 1.2 mm 10 mps 747 mmHg 93%
10:00 +11°C° 1.2 mm 10 mps 747 mmHg 93%
11:00 +12°C° 1.2 mm 10 mps 747 mmHg 92%
12:00 +11°C° 0.3 mm 10 mps 748 mmHg 90%
13:00 +11°C° 0.3 mm 9 mps 748 mmHg 87%
14:00 +11°C° 0.3 mm 8 mps 748 mmHg 84%
15:00 +11°C° 0.4 mm 8 mps 748 mmHg 86%
16:00 +10°C° 0.4 mm 8 mps 748 mmHg 87%
17:00 +10°C° 0.4 mm 9 mps 748 mmHg 89%
18:00 +8°C° 0.3 mm 9 mps 749 mmHg 89%
19:00 +8°C° 0.3 mm 9 mps 749 mmHg 90%
20:00 +8°C° 0.3 mm 10 mps 750 mmHg 90%
21:00 +9°C° 0.3 mm 8 mps 751 mmHg 91%
22:00 +8°C° 0.3 mm 7 mps 752 mmHg 92%
23:00 +7°C° 0.3 mm 5 mps 753 mmHg 93%

22 Enero, Viernes

Tiempo Temperatura Precipitaciones Viento Presión Humedad
00:00 +7°C° 0.3 mm 5 mps 752 mmHg 94%
01:00 +7°C° 0.3 mm 5 mps 752 mmHg 95%
02:00 +7°C° 0.3 mm 5 mps 752 mmHg 96%
03:00 +7°C° 0.5 mm 5 mps 752 mmHg 95%
04:00 +8°C° 0.5 mm 6 mps 752 mmHg 94%
05:00 +8°C° 0.5 mm 6 mps 751 mmHg 93%
06:00 +7°C° 1 mm 6 mps 752 mmHg 93%
07:00 +7°C° 1 mm 6 mps 753 mmHg 94%
08:00 +5°C° 1 mm 7 mps 754 mmHg 94%
09:00 +6°C° 0.4 mm 7 mps 756 mmHg 90%
10:00 +8°C° 0.4 mm 7 mps 757 mmHg 86%
11:00 +9°C° 0.4 mm 7 mps 758 mmHg 82%
12:00 +9°C° 0.1 mm 6 mps 759 mmHg 78%
13:00 +9°C° 0.1 mm 6 mps 759 mmHg 74%
14:00 +9°C° 0.1 mm 5 mps 759 mmHg 71%
15:00 +8°C° 0.1 mm 5 mps 760 mmHg 77%
16:00 +7°C° 0.1 mm 5 mps 760 mmHg 84%
17:00 +6°C° 0.1 mm 5 mps 761 mmHg 91%
18:00 +6°C° 0.1 mm 5 mps 761 mmHg 92%
19:00 +6°C° 0.1 mm 5 mps 762 mmHg 93%
20:00 +6°C° 0.1 mm 5 mps 762 mmHg 94%
21:00 +5°C° 0.1 mm 6 mps 762 mmHg 94%
22:00 +5°C° 0.1 mm 6 mps 762 mmHg 94%
23:00 +7°C° 0.1 mm 6 mps 762 mmHg 93%
Mostrar más

Necesitamos Su Consentimiento

Meteoprog y nuestros Proveedores de Servicios pueden almacenar y acceder a sus datos personales como cookies, identificadores de dispositivo u otras tecnologías similares de su dispositivo y procesar dichos datos para personalizar contenido y anuncios, además de ofrecer funciones de redes sociales y analizar el tráfico.

  • Almacenar y/o acceder a información en su dispositivo

    Se puede almacenar o acceder a cookies, identificadores de dispositivo u otra información de su dispositivo para los fines anteriormente indicados.

  • Anuncios y contenido personalizados, medición de anuncios y contenido, percepciones del público, y desarrollo de productos

    Los anuncios y el contenido pueden personalizarse en base a su perfil. Se pueden añadir más datos para personalizar mejor los anuncios y contenidos. Se puede medir el rendimiento de los anuncios y contenidos. Se puede obtener la percepción sobre el público que ha visto los anuncios y contenidos. Dichos datos pueden usarse para desarrollar o mejorar la experiencia del usuario, sistemas y software.

Al hacer clic en ‘Estoy De Acuerdo’ usted permitirá el uso de las cookies, identificadores de dispositivo, balizas web u otras tecnologías similares indicadas. Su configuración puede cambiarse desde el navegador de su dispositivo.

Para ciertos fines, los intereses legítimos pueden ser considerados por encima del consentimiento. Puede leer más sobre ello en nuestra Política de Privacidad y Cookies.